START_TIME,STEP,MOV.,M29,t_acc.,H22,t_acc.,H26,t_acc.,H30,t_acc.
1979-07-16 03:00:32.090 ,1,0,0.,24.0,0.,24.0,0.,24.0,0.,24.0
1979-07-16 03:00:56.090 ,2,1,0.,24.0,0.,24.0,0.,24.0,0.,24.0
1979-07-16 03:01:20.090 ,2,0,0.,24.0,0.,24.0,0.,24.0,0.,24.0
1979-07-16 03:01:44.090 ,3,1,0.,24.0,0.,24.0,0.,24.0,0.,24.0
1979-07-16 03:02:08.090 ,3,0,0.,24.0,0.,24.0,0.,24.0,0.,24.0
1979-07-16 03:02:32.090 ,4,1,0.,24.0,0.,24.0,0.,24.0,0.,24.0
1979-07-16 03:02:56.090 ,4,0,0.,24.0,0.,24.0,0.,24.0,0.,24.0
1979-07-16 03:03:20.090 ,5,1,0.,24.0,0.,24.0,0.,24.0,0.,24.0
1979-07-16 03:03:44.090 ,5,0,0.,24.0,0.,24.0,0.,24.0,0.,24.0
1979-07-16 03:04:08.090 ,6,1,0.,24.0,0.,24.0,0.,24.0,0.,24.0
1979-07-16 03:04:32.090 ,6,0,0.,24.0,0.,24.0,0.,24.0,0.,24.0
1979-07-16 03:04:56.090 ,7,1,0.,24.0,0.,24.0,0.,24.0,0.,24.0
1979-07-16 03:05:20.090 ,7,0,0.,24.0,0.,24.0,0.,24.0,0.,24.0
1979-07-16 03:05:44.090 ,7,1,0.,24.0,0.,24.0,0.,24.0,0.,24.0
1979-07-16 03:06:08.090 ,7,0,0.,24.0,0.,24.0,0.,24.0,0.,24.0
1979-07-16 03:06:32.090 ,6,1,0.,24.0,0.,24.0,0.,24.0,0.,24.0
1979-07-16 03:06:56.090 ,6,0,0.,24.0,0.,24.0,0.,24.0,0.,24.0
1979-07-16 03:07:20.090 ,5,1,0.,24.0,0.,24.0,0.,24.0,0.,24.0
1979-07-16 03:07:44.090 ,5,0,0.,24.0,0.,24.0,0.,24.0,0.,24.0
1979-07-16 03:08:08.090 ,4,1,0.,24.0,0.,24.0,0.,24.0,0.,24.0
1979-07-16 03:08:32.090 ,4,0,0.,24.0,0.,24.0,0.,24.0,0.,24.0
1979-07-16 03:08:56.090 ,3,1,0.,24.0,0.,24.0,0.,24.0,0.,24.0
1979-07-16 03:09:20.090 ,3,0,0.,24.0,0.,24.0,0.,24.0,0.,24.0
1979-07-16 03:09:44.090 ,2,1,0.,24.0,0.,24.0,0.,24.0,0.,24.0
1979-07-16 03:10:08.090 ,2,0,0.,24.0,0.,24.0,0.,24.0,0.,24.0
1979-07-16 03:10:32.090 ,1,1,0.,24.0,0.,24.0,0.,24.0,0.,24.0
1979-07-16 03:10:56.090 ,1,0,0.,24.0,0.,24.0,0.,24.0,0.,24.0
1979-07-16 03:11:20.090 ,0,1,0.,24.0,0.,24.0,0.,24.0,0.,24.0
1979-07-16 03:11:44.090 ,0,0,0.,24.0,0.,24.0,0.,24.0,0.,24.0
1979-07-16 03:12:08.090 ,0,1,0.,24.0,0.,24.0,0.,24.0,0.,24.0
1979-07-16 03:12:32.090 ,0,0,0.,24.0,0.,24.0,0.,24.0,0.,24.0
1979-07-16 03:12:56.090 ,1,1,0.,24.0,0.,24.0,0.,24.0,0.,24.0
1979-07-16 03:13:20.090 ,1,0,0.,24.0,0.,24.0,0.,24.0,0.,24.0
1979-07-16 03:13:44.090 ,2,1,0.,24.0,0.,24.0,0.,24.0,0.,24.0
1979-07-16 03:14:08.090 ,2,0,0.,24.0,0.,24.0,0.,24.0,0.,24.0
1979-07-16 03:14:32.090 ,3,1,0.,24.0,0.,24.0,0.,24.0,0.,24.0
1979-07-16 03:14:56.090 ,3,0,0.,24.0,0.,24.0,0.,24.0,0.,24.0
1979-07-16 03:15:20.090 ,4,1,0.,24.0,0.,24.0,0.,24.0,0.,24.0
1979-07-16 03:15:44.090 ,4,0,0.,24.0,0.,24.0,0.,24.0,0.,24.0
1979-07-16 03:16:08.090 ,5,1,0.,24.0,0.,24.0,0.,24.0,0.,24.0
1979-07-16 03:16:32.090 ,5,0,0.,24.0,0.,24.0,0.,24.0,0.,24.0
1979-07-16 03:16:56.090 ,6,1,0.,24.0,0.,24.0,0.,24.0,0.,24.0
1979-07-16 03:17:20.090 ,6,0,0.,24.0,0.,24.0,0.,24.0,0.,24.0
1979-07-16 03:17:44.090 ,7,1,0.,24.0,0.,24.0,0.,24.0,0.,24.0
1979-07-16 03:18:08.090 ,7,0,0.,24.0,0.,24.0,0.,24.0,0.,24.0
1979-07-16 03:18:32.090 ,7,1,0.,24.0,0.,24.0,0.,24.0,0.,24.0
1979-07-16 03:18:56.090 ,7,0,0.,24.0,0.,24.0,0.,24.0,0.,24.0
1979-07-16 03:19:20.090 ,6,1,0.,24.0,0.,24.0,0.,24.0,0.,24.0
1979-07-16 03:19:44.090 ,6,0,0.,24.0,0.,24.0,0.,24.0,0.,24.0
1979-07-16 03:20:08.090 ,5,1,0.,24.0,0.,24.0,0.,24.0,0.,24.0
1979-07-16 03:20:32.090 ,5,0,0.,24.0,0.,24.0,0.,24.0,0.,24.0
1979-07-16 03:20:56.090 ,4,1,0.,24.0,0.,24.0,0.,24.0,0.,24.0
1979-07-16 03:21:20.090 ,0,0,0.,24.0,0.,24.0,0.,24.0,0.,24.0
1979-07-16 03:21:50.090 ,0,0,0.,24.0,0.,24.0,0.,24.0,0.,24.0
1979-07-16 03:22:08.090 ,0,0,0.,24.0,0.,24.0,0.,24.0,0.,24.0
1979-07-16 03:22:32.090 ,2,1,0.,24.0,0.,24.0,0.,24.0,0.,24.0
1979-07-16 03:22:56.090 ,2,0,0.,24.0,0.,24.0,0.,24.0,0.,24.0
1979-07-16 03:23:20.090 ,1,1,0.,24.0,0.,24.0,0.,24.0,0.,24.0
1979-07-16 03:23:44.090 ,1,0,0.,24.0,0.,24.0,0.,24.0,0.,24.0
1979-07-16 03:24:08.090 ,0,1,0.,24.0,0.,24.0,0.,24.0,0.,24.0
1979-07-16 03:24:32.090 ,0,0,0.,24.0,0.,24.0,0.,24.0,0.,24.0
1979-07-16 03:24:56.090 ,0,1,0.,24.0,0.,24.0,0.,24.0,0.,24.0
1979-07-16 03:25:20.090 ,0,0,0.,24.0,0.,24.0,0.,24.0,0.,24.0
1979-07-16 03:25:44.090 ,1,1,0.,24.0,0.,24.0,0.,24.0,0.,24.0
1979-07-16 03:26:08.090 ,1,0,0.,24.0,0.,24.0,0.,24.0,0.,24.0
1979-07-16 03:26:32.090 ,2,1,0.,24.0,0.,24.0,0.,24.0,0.,24.0
1979-07-16 03:26:56.090 ,2,0,0.,24.0,0.,24.0,0.,24.0,0.,24.0
1979-07-16 03:27:20.090 ,3,1,0.,24.0,0.,24.0,0.,24.0,0.,24.0
1979-07-16 03:27:44.090 ,3,0,0.,24.0,0.,24.0,0.,24.0,0.,24.0
1979-07-16 03:28:08.090 ,4,1,0.,24.0,0.,24.0,0.,24.0,0.,24.0
1979-07-16 03:28:32.090 ,4,0,0.,24.0,0.,24.0,0.,24.0,0.,24.0
1979-07-16 03:28:56.090 ,5,1,0.,24.0,0.,24.0,0.,24.0,0.,24.0
1979-07-16 03:29:20.090 ,5,0,0.,24.0,0.,24.0,0.,24.0,0.,24.0
1979-07-16 03:29:44.090 ,6,1,0.,24.0,0.,24.0,0.,24.0,0.,24.0
1979-07-16 03:30:08.090 ,6,0,0.,24.0,0.,24.0,0.,24.0,0.,24.0
1979-07-16 03:30:32.090 ,7,0,0.,24.0,0.,24.0,0.,24.0,0.,24.0
1979-07-16 03:30:56.090 ,7,0,0.,24.0,0.,24.0,0.,24.0,0.,24.0
1979-07-16 03:31:20.090 ,5,1,0.,24.0,0.,24.0,0.,24.0,0.,24.0
1979-07-16 03:31:44.090 ,1,1,0.,24.0,0.,24.0,0.,24.0,0.,24.0
1979-07-16 03:32:08.090 ,2,1,0.,24.0,0.,24.0,0.,24.0,0.,24.0
1979-07-16 03:32:32.090 ,6,1,0.,24.0,0.,24.0,0.,24.0,0.,24.0
1979-07-16 03:32:56.090 ,5,1,0.,24.0,0.,24.0,0.,24.0,0.,24.0
1979-07-16 03:33:20.090 ,1,1,0.,24.0,0.,24.0,0.,24.0,0.,24.0
1979-07-16 03:33:44.090 ,2,1,0.,24.0,0.,24.0,0.,24.0,0.,24.0
1979-07-16 03:34:08.090 ,6,1,0.,24.0,0.,24.0,0.,24.0,0.,24.0
1979-07-16 03:34:32.090 ,5,1,0.,24.0,0.,24.0,0.,24.0,0.,24.0
1979-07-16 03:34:56.090 ,1,1,0.,24.0,0.,24.0,0.,24.0,0.,24.0
1979-07-16 03:35:20.090 ,2,1,0.,24.0,0.,24.0,0.,24.0,0.,24.0
1979-07-16 03:35:44.090 ,6,1,0.,24.0,0.,24.0,0.,24.0,0.,24.0
1979-07-16 03:36:08.090 ,5,1,0.,24.0,0.,24.0,0.,24.0,0.,24.0
1979-07-16 03:36:32.090 ,1,1,0.,24.0,0.,24.0,0.,24.0,0.,24.0
1979-07-16 03:36:56.090 ,2,1,0.,24.0,0.,24.0,0.,24.0,0.,24.0
1979-07-16 03:37:20.090 ,6,1,0.,24.0,0.,24.0,0.,24.0,0.,24.0
1979-07-16 03:37:44.090 ,5,1,0.,24.0,0.,24.0,0.,24.0,0.,24.0
1979-07-16 03:38:08.090 ,1,1,0.,24.0,0.,24.0,0.,24.0,0.,24.0
1979-07-16 03:38:32.090 ,2,1,0.,24.0,0.,24.0,0.,24.0,0.,24.0
1979-07-16 03:38:56.090 ,6,1,0.,24.0,0.,24.0,0.,24.0,0.,24.0
1979-07-16 03:39:20.090 ,5,1,0.,24.0,0.,24.0,0.,24.0,0.,24.0
1979-07-16 03:39:44.090 ,1,1,0.,24.0,0.,24.0,0.,24.0,0.,24.0
1979-07-16 03:40:08.090 ,2,1,0.,24.0,0.,24.0,0.,24.0,0.,24.0
1979-07-16 03:40:32.090 ,6,1,0.,24.0,0.,24.0,0.,24.0,0.,24.0
1979-07-16 03:40:56.090 ,5,1,0.,24.0,0.,24.0,0.,24.0,0.,24.0
1979-07-16 03:41:20.090 ,1,1,0.,24.0,0.,24.0,0.,24.0,0.,24.0
1979-07-16 03:41:44.090 ,0,0,0.,24.0,0.,24.0,0.,24.0,0.,24.0
1979-07-16 03:42:08.090 ,0,0,0.,24.0,0.,24.0,0.,24.0,0.,24.0
1979-07-16 03:42:32.090 ,5,1,0.,24.0,0.,24.0,0.,24.0,0.,24.0
1979-07-16 03:42:56.090 ,5,0,0.,24.0,0.,24.0,0.,24.0,0.,24.0
1979-07-16 03:43:20.090 ,4,1,0.,24.0,0.,24.0,0.,24.0,0.,24.0
1979-07-16 03:43:44.090 ,4,0,0.,24.0,0.,24.0,0.,24.0,0.,24.0
1979-07-16 03:44:08.090 ,3,1,0.,24.0,0.,24.0,0.,24.0,0.,24.0
1979-07-16 03:44:32.090 ,3,0,0.,24.0,0.,24.0,0.,24.0,0.,24.0
1979-07-16 03:44:56.090 ,2,1,0.,24.0,0.,24.0,0.,24.0,0.,24.0
1979-07-16 03:45:20.090 ,2,0,0.,24.0,0.,24.0,0.,24.0,0.,24.0
1979-07-16 03:45:44.090 ,1,1,0.,24.0,0.,24.0,0.,24.0,0.,24.0
1979-07-16 03:46:08.090 ,1,0,0.,24.0,0.,24.0,0.,24.0,0.,24.0
1979-07-16 03:46:32.090 ,0,1,0.,24.0,0.,24.0,0.,24.0,0.,24.0
1979-07-16 03:46:56.090 ,0,0,0.,24.0,0.,24.0,0.,24.0,0.,24.0
1979-07-16 03:47:20.090 ,0,1,0.,24.0,0.,24.0,0.,24.0,0.,24.0
1979-07-16 03:47:44.090 ,0,0,0.,24.0,0.,24.0,0.,24.0,0.,24.0
1979-07-16 03:48:08.090 ,1,1,0.,24.0,0.,24.0,0.,24.0,0.,24.0
1979-07-16 03:48:32.090 ,1,0,0.,24.0,0.,24.0,0.,24.0,0.,24.0
1979-07-16 03:48:56.090 ,2,1,0.,24.0,0.,24.0,0.,24.0,0.,24.0
1979-07-16 03:49:20.090 ,2,0,0.,24.0,0.,24.0,0.,24.0,0.,24.0
1979-07-16 03:49:44.090 ,3,1,0.,24.0,0.,24.0,0.,24.0,0.,24.0
1979-07-16 03:50:08.090 ,3,0,0.,24.0,0.,24.0,0.,24.0,0.,24.0
1979-07-16 03:50:32.090 ,4,1,0.,24.0,0.,24.0,0.,24.0,0.,24.0
1979-07-16 03:50:56.090 ,4,0,0.,24.0,0.,24.0,0.,24.0,0.,24.0
1979-07-16 03:51:20.090 ,5,1,0.,24.0,0.,24.0,0.,24.0,0.,24.0
1979-07-16 03:51:44.090 ,5,0,0.,24.0,0.,24.0,0.,24.0,0.,24.0
1979-07-16 03:52:08.090 ,6,1,0.,24.0,0.,24.0,0.,24.0,0.,24.0
1979-07-16 03:52:32.090 ,6,0,0.,24.0,0.,24.0,0.,24.0,0.,24.0
1979-07-16 03:52:56.090 ,7,1,0.,24.0,0.,24.0,0.,24.0,0.,24.0
1979-07-16 03:53:20.090 ,7,0,0.,24.0,0.,24.0,0.,24.0,0.,24.0
1979-07-16 03:53:44.090 ,7,1,0.,24.0,0.,24.0,0.,24.0,0.,24.0
1979-07-16 03:54:08.090 ,7,0,0.,24.0,0.,24.0,0.,24.0,0.,24.0
1979-07-16 03:54:32.090 ,6,1,0.,24.0,0.,24.0,0.,24.0,0.,24.0
1979-07-16 04:04:32.090 ,5,0,0.,24.0,0.,24.0,0.,24.0,0.,24.0
1979-07-16 04:04:56.090 ,6,1,0.,24.0,0.,24.0,0.,24.0,0.,24.0
1979-07-16 04:05:20.090 ,6,0,0.,24.0,0.,24.0,0.,24.0,0.,24.0
1979-07-16 04:05:44.090 ,7,1,0.,24.0,0.,24.0,0.,24.0,0.,24.0
1979-07-16 04:06:08.090 ,7,0,0.,24.0,0.,24.0,0.,24.0,0.,24.0
1979-07-16 04:06:32.090 ,7,1,0.,24.0,0.,24.0,0.,24.0,0.,24.0
1979-07-16 04:06:56.090 ,7,0,0.,24.0,0.,24.0,0.,24.0,0.,24.0
1979-07-16 04:07:20.090 ,6,1,0.,24.0,0.,24.0,0.,24.0,0.,24.0
1979-07-16 04:07:44.090 ,6,0,0.,24.0,0.,24.0,0.,24.0,0.,24.0
1979-07-16 04:08:08.090 ,5,1,0.,24.0,0.,24.0,0.,24.0,0.,24.0
1979-07-16 04:08:32.090 ,5,0,0.,24.0,0.,24.0,0.,24.0,0.,24.0
1979-07-16 04:08:56.090 ,4,1,0.,24.0,0.,24.0,0.,24.0,0.,24.0
1979-07-16 04:09:20.090 ,4,0,0.,24.0,0.,24.0,0.,24.0,0.,24.0
1979-07-16 04:09:44.090 ,3,1,0.,24.0,0.,24.0,0.,24.0,0.,24.0
1979-07-16 04:10:08.090 ,3,0,0.,24.0,0.,24.0,0.,24.0,0.,24.0
1979-07-16 04:10:32.090 ,2,1,0.,24.0,0.,24.0,0.,24.0,0.,24.0
1979-07-16 04:10:56.090 ,2,0,0.,24.0,0.,24.0,0.,24.0,0.,24.0
1979-07-16 04:11:20.090 ,1,1,0.,24.0,0.,24.0,0.,24.0,0.,24.0
1979-07-16 04:11:44.090 ,1,0,0.,24.0,0.,24.0,0.,24.0,0.,24.0
1979-07-16 04:12:08.090 ,0,1,0.,24.0,0.,24.0,0.,24.0,0.,24.0
1979-07-16 04:12:32.090 ,0,0,0.,24.0,0.,24.0,0.,24.0,0.,24.0
1979-07-16 04:12:56.090 ,0,1,0.,24.0,0.,24.0,0.,24.0,0.,24.0
1979-07-16 04:13:20.090 ,0,0,0.,24.0,0.,24.0,0.,24.0,0.,24.0
1979-07-16 04:13:44.090 ,1,1,0.,24.0,0.,24.0,0.,24.0,0.,24.0
1979-07-16 04:14:08.090 ,1,0,0.,24.0,0.,24.0,0.,24.0,0.,24.0
1979-07-16 04:14:32.090 ,2,1,0.,24.0,0.,24.0,0.,24.0,0.,24.0
1979-07-16 04:14:56.090 ,2,0,0.,24.0,0.,24.0,0.,24.0,0.,24.0
1979-07-16 04:15:20.090 ,3,1,0.,24.0,0.,24.0,0.,24.0,0.,24.0
1979-07-16 04:15:44.090 ,3,0,0.,24.0,0.,24.0,0.,24.0,0.,24.0
1979-07-16 04:16:08.090 ,4,1,0.,24.0,0.,24.0,0.,24.0,0.,24.0
1979-07-16 04:16:32.090 ,4,0,0.,24.0,0.,24.0,0.,24.0,0.,24.0
1979-07-16 04:16:56.090 ,5,1,0.,24.0,0.,24.0,0.,24.0,0.,24.0
1979-07-16 04:17:20.090 ,5,0,0.,24.0,0.,24.0,0.,24.0,0.,24.0
1979-07-16 04:17:44.090 ,6,1,0.,24.0,0.,24.0,0.,24.0,0.,24.0
1979-07-16 04:18:08.090 ,6,0,0.,24.0,0.,24.0,0.,24.0,0.,24.0
1979-07-16 04:18:32.090 ,7,0,0.,24.0,0.,24.0,0.,24.0,0.,24.0
1979-07-16 04:18:56.090 ,7,0,0.,24.0,0.,24.0,0.,24.0,0.,24.0
1979-07-16 04:19:20.090 ,5,1,0.,24.0,0.,24.0,0.,24.0,0.,24.0
1979-07-16 04:19:44.090 ,1,1,0.,24.0,0.,24.0,0.,24.0,0.,24.0
1979-07-16 04:20:08.090 ,2,1,0.,24.0,0.,24.0,0.,24.0,0.,24.0
1979-07-16 04:20:32.090 ,6,1,0.,24.0,0.,24.0,0.,24.0,0.,24.0
1979-07-16 04:20:56.090 ,5,1,0.,24.0,0.,24.0,0.,24.0,0.,24.0
1979-07-16 04:21:20.090 ,1,1,0.,24.0,0.,24.0,0.,24.0,0.,24.0
1979-07-16 04:21:44.090 ,2,1,0.,24.0,0.,24.0,0.,24.0,0.,24.0
1979-07-16 04:22:08.090 ,6,1,0.,24.0,0.,24.0,0.,24.0,0.,24.0
1979-07-16 04:22:32.090 ,5,1,0.,24.0,0.,24.0,0.,24.0,0.,24.0
1979-07-16 04:22:56.090 ,1,1,0.,24.0,0.,24.0,0.,24.0,0.,24.0
1979-07-16 04:23:20.090 ,2,1,0.,24.0,0.,24.0,0.,24.0,0.,24.0
1979-07-16 04:23:44.090 ,6,1,0.,24.0,0.,24.0,0.,24.0,0.,24.0
1979-07-16 04:24:08.090 ,5,1,0.,24.0,0.,24.0,0.,24.0,0.,24.0
1979-07-16 04:24:32.090 ,1,1,0.,24.0,0.,24.0,0.,24.0,0.,24.0
1979-07-16 04:24:56.090 ,2,1,0.,24.0,0.,24.0,0.,24.0,0.,24.0
1979-07-16 04:25:20.090 ,6,1,0.,24.0,0.,24.0,0.,24.0,0.,24.0
1979-07-16 04:25:44.090 ,5,1,0.,24.0,0.,24.0,0.,24.0,0.,24.0
1979-07-16 04:26:08.090 ,1,1,0.,24.0,0.,24.0,0.,24.0,0.,24.0
1979-07-16 04:26:32.090 ,2,1,0.,24.0,0.,24.0,0.,24.0,0.,24.0
1979-07-16 04:26:56.090 ,6,1,0.,24.0,0.,24.0,0.,24.0,0.,24.0
1979-07-16 04:27:20.090 ,5,1,0.,24.0,0.,24.0,0.,24.0,0.,24.0
1979-07-16 04:27:44.090 ,1,1,0.,24.0,0.,24.0,0.,24.0,0.,24.0
1979-07-16 04:28:08.090 ,2,1,0.,24.0,0.,24.0,0.,24.0,0.,24.0
1979-07-16 04:28:32.090 ,6,1,0.,24.0,0.,24.0,0.,24.0,0.,24.0
1979-07-16 04:28:56.090 ,5,1,0.,24.0,0.,24.0,0.,24.0,0.,24.0
1979-07-16 04:29:20.090 ,1,1,0.,24.0,0.,24.0,0.,24.0,0.,24.0
1979-07-16 04:30:32.090 ,0,0,0.,24.0,0.,24.0,0.,24.0,0.,24.0
1979-07-16 04:30:56.090 ,0,0,0.,24.0,0.,24.0,0.,24.0,0.,24.0
1979-07-16 04:31:20.090 ,4,1,0.,24.0,0.,24.0,0.,24.0,0.,24.0
1979-07-16 04:31:44.090 ,4,0,0.,24.0,0.,24.0,0.,24.0,0.,24.0
1979-07-16 04:32:08.090 ,3,1,0.,24.0,0.,24.0,0.,24.0,0.,24.0
1979-07-16 04:32:32.090 ,3,0,0.,24.0,0.,24.0,0.,24.0,0.,24.0
1979-07-16 04:32:56.090 ,2,1,0.,24.0,0.,24.0,0.,24.0,0.,24.0
1979-07-16 04:33:20.090 ,2,0,0.,24.0,0.,24.0,0.,24.0,0.,24.0
1979-07-16 04:33:44.090 ,1,1,0.,24.0,0.,24.0,0.,24.0,0.,24.0
1979-07-16 04:34:08.080 ,1,0,0.,24.0,0.,24.0,0.,24.0,0.,24.0
1979-07-16 04:34:32.080 ,0,1,0.,24.0,0.,24.0,0.,24.0,0.,24.0
1979-07-16 04:34:56.080 ,0,0,0.,24.0,0.,24.0,0.,24.0,0.,24.0
1979-07-16 04:35:20.080 ,0,1,0.,24.0,0.,24.0,0.,24.0,0.,24.0
1979-07-16 04:35:44.080 ,0,0,0.,24.0,0.,24.0,0.,24.0,0.,24.0
1979-07-16 04:36:08.080 ,1,1,0.,24.0,0.,24.0,0.,24.0,0.,24.0
1979-07-16 04:36:32.080 ,1,0,0.,24.0,0.,24.0,0.,24.0,0.,24.0
1979-07-16 04:36:56.080 ,2,1,0.,24.0,0.,24.0,0.,24.0,0.,24.0
1979-07-16 04:37:20.080 ,2,0,0.,24.0,0.,24.0,0.,24.0,0.,24.0
1979-07-16 04:37:44.080 ,3,1,0.,24.0,0.,24.0,0.,24.0,0.,24.0
1979-07-16 04:38:08.080 ,3,0,0.,24.0,0.,24.0,0.,24.0,0.,24.0
1979-07-16 04:38:32.080 ,4,1,0.,24.0,0.,24.0,0.,24.0,0.,24.0
1979-07-16 04:38:56.080 ,4,0,0.,24.0,0.,24.0,0.,24.0,0.,24.0
1979-07-16 04:39:20.080 ,5,1,0.,24.0,0.,24.0,0.,24.0,0.,24.0
1979-07-16 04:39:44.080 ,5,0,0.,24.0,0.,24.0,0.,24.0,0.,24.0
1979-07-16 04:40:08.080 ,6,1,0.,24.0,0.,24.0,0.,24.0,0.,24.0
1979-07-16 04:40:32.080 ,6,0,0.,24.0,0.,24.0,0.,24.0,0.,24.0
1979-07-16 04:40:56.080 ,7,1,0.,24.0,0.,24.0,0.,24.0,0.,24.0
1979-07-16 04:41:20.080 ,7,0,0.,24.0,0.,24.0,0.,24.0,0.,24.0
1979-07-16 04:41:44.080 ,7,1,0.,24.0,0.,24.0,0.,24.0,0.,24.0
1979-07-16 04:42:08.080 ,7,0,0.,24.0,0.,24.0,0.,24.0,0.,24.0
1979-07-16 04:42:32.080 ,6,1,0.,24.0,0.,24.0,0.,24.0,0.,24.0
1979-07-16 04:42:56.080 ,6,0,0.,24.0,0.,24.0,0.,24.0,0.,24.0
1979-07-16 04:43:20.080 ,5,1,0.,24.0,0.,24.0,0.,24.0,0.,24.0
1979-07-16 04:43:44.080 ,5,0,0.,24.0,0.,24.0,0.,24.0,0.,24.0
1979-07-16 04:44:08.080 ,4,1,0.,24.0,0.,24.0,0.,24.0,0.,24.0
1979-07-16 04:44:32.080 ,4,0,0.,24.0,0.,24.0,0.,24.0,0.,24.0
1979-07-16 04:44:56.080 ,3,1,0.,24.0,0.,24.0,0.,24.0,0.,24.0
1979-07-16 04:45:20.080 ,3,0,0.,24.0,0.,24.0,0.,24.0,0.,24.0
1979-07-16 04:45:44.080 ,2,1,0.,24.0,0.,24.0,0.,24.0,0.,24.0
1979-07-16 04:46:08.080 ,2,0,0.,24.0,0.,24.0,0.,24.0,0.,24.0
1979-07-16 04:46:32.080 ,1,1,0.,24.0,0.,24.0,0.,24.0,0.,24.0
1979-07-16 04:46:56.080 ,1,0,0.,24.0,0.,24.0,0.,24.0,0.,24.0
1979-07-16 04:47:20.080 ,0,1,0.,24.0,0.,24.0,0.,24.0,0.,24.0
1979-07-16 04:47:44.080 ,0,0,0.,24.0,0.,24.0,0.,24.0,0.,24.0
1979-07-16 04:48:08.080 ,0,1,0.,24.0,0.,24.0,0.,24.0,0.,24.0
1979-07-16 04:48:32.080 ,0,0,0.,24.0,0.,24.0,0.,24.0,0.,24.0
1979-07-16 04:48:56.080 ,1,1,0.,24.0,0.,24.0,0.,24.0,0.,24.0
1979-07-16 04:49:20.080 ,1,0,0.,24.0,0.,24.0,0.,24.0,0.,24.0
1979-07-16 04:49:44.080 ,2,1,0.,24.0,0.,24.0,0.,24.0,0.,24.0
1979-07-16 04:50:08.080 ,2,0,0.,24.0,0.,24.0,0.,24.0,0.,24.0
1979-07-16 04:50:32.080 ,3,1,0.,24.0,0.,24.0,0.,24.0,0.,24.0
1979-07-16 04:50:56.080 ,3,0,0.,24.0,0.,24.0,0.,24.0,0.,24.0
1979-07-16 04:51:20.080 ,4,1,0.,24.0,0.,24.0,0.,24.0,0.,24.0
1979-07-16 04:51:44.080 ,4,0,0.,24.0,0.,24.0,0.,24.0,0.,24.0
1979-07-16 04:52:08.080 ,5,1,0.,24.0,0.,24.0,0.,24.0,0.,24.0
1979-07-16 04:52:32.080 ,5,0,0.,24.0,0.,24.0,0.,24.0,0.,24.0
1979-07-16 04:52:56.080 ,6,1,0.,24.0,0.,24.0,0.,24.0,0.,24.0
1979-07-16 04:53:20.080 ,6,0,0.,24.0,0.,24.0,0.,24.0,0.,24.0
1979-07-16 04:53:44.080 ,7,1,0.,24.0,0.,24.0,0.,24.0,0.,24.0
1979-07-16 04:54:08.080 ,7,0,0.,24.0,0.,24.0,0.,24.0,0.,24.0
1979-07-16 04:54:32.080 ,7,1,0.,24.0,0.,24.0,0.,24.0,0.,24.0
1979-07-16 04:54:56.080 ,7,0,0.,24.0,0.,24.0,0.,24.0,0.,24.0
1979-07-16 04:55:20.080 ,6,1,0.,24.0,0.,24.0,0.,24.0,0.,24.0
1979-07-16 04:55:44.080 ,6,0,0.,24.0,0.,24.0,0.,24.0,0.,24.0
1979-07-16 04:56:08.080 ,5,1,0.,24.0,0.,24.0,0.,24.0,0.,24.0
1979-07-16 04:56:32.080 ,5,0,0.,24.0,0.,24.0,0.,24.0,0.,24.0
1979-07-16 04:56:56.080 ,4,1,0.,24.0,0.,24.0,0.,24.0,0.,24.0
1979-07-16 04:57:20.080 ,4,0,0.,24.0,0.,24.0,0.,24.0,0.,24.0
1979-07-16 04:57:44.080 ,3,1,0.,24.0,0.,24.0,0.,24.0,0.,24.0
1979-07-16 04:58:08.080 ,3,0,0.,24.0,0.,24.0,0.,24.0,0.,24.0
1979-07-16 04:58:32.080 ,2,1,0.,24.0,0.,24.0,0.,24.0,0.,24.0
1979-07-16 04:58:56.080 ,2,0,0.,24.0,0.,24.0,0.,24.0,0.,24.0
1979-07-16 04:59:20.080 ,1,0,,0,,0,,0,,0
1979-07-16 04:59:44.080 ,1,0,,0,,0,,0,,0
1979-07-16 05:00:08.080 ,0,1,0.,24.0,0.,24.0,0.,24.0,0.,24.0
1979-07-16 05:00:32.080 ,0,0,0.,24.0,0.,24.0,0.,24.0,0.,24.0
1979-07-16 05:00:56.080 ,0,1,0.,24.0,0.,24.0,0.,24.0,0.,24.0
1979-07-16 05:01:20.080 ,0,0,0.,24.0,0.,24.0,0.,24.0,0.,24.0
1979-07-16 05:01:44.080 ,1,1,0.,24.0,0.,24.0,0.,24.0,0.,24.0
1979-07-16 05:02:08.080 ,1,0,0.,24.0,0.,24.0,0.,24.0,0.,24.0
1979-07-16 05:02:32.080 ,2,1,0.,24.0,0.,24.0,0.,24.0,0.,24.0
1979-07-16 05:02:56.080 ,2,0,0.,24.0,0.,24.0,0.,24.0,0.,24.0
1979-07-16 05:03:20.080 ,3,1,0.,24.0,0.,24.0,0.,24.0,0.,24.0
1979-07-16 05:03:44.080 ,3,0,0.,24.0,0.,24.0,0.,24.0,0.,24.0
1979-07-16 05:04:08.080 ,4,1,0.,24.0,0.,24.0,0.,24.0,0.,24.0
1979-07-16 05:04:32.080 ,4,0,0.,24.0,0.,24.0,0.,24.0,0.,24.0
1979-07-16 05:04:56.080 ,5,1,0.,24.0,0.,24.0,0.,24.0,0.,24.0
1979-07-16 05:05:20.080 ,5,0,0.,24.0,0.,24.0,0.,24.0,0.,24.0
1979-07-16 05:05:44.080 ,6,1,0.,24.0,0.,24.0,0.,24.0,0.,24.0
1979-07-16 05:06:08.080 ,6,0,0.,24.0,0.,24.0,0.,24.0,0.,24.0
1979-07-16 05:08:08.080 ,0,0,0.,24.0,0.,24.0,0.,24.0,0.,24.0
1979-07-16 05:08:32.080 ,6,1,0.,24.0,0.,24.0,0.,24.0,0.,24.0
1979-07-16 05:08:56.080 ,5,1,0.,24.0,0.,24.0,0.,24.0,0.,24.0
1979-07-16 05:09:20.080 ,1,1,0.,24.0,0.,24.0,0.,24.0,0.,24.0
1979-07-16 05:09:44.080 ,2,1,0.,24.0,0.,24.0,0.,24.0,0.,24.0
1979-07-16 05:10:08.080 ,6,1,0.,24.0,0.,24.0,0.,24.0,0.,24.0
1979-07-16 05:10:32.080 ,5,1,0.,24.0,0.,24.0,0.,24.0,0.,24.0
1979-07-16 05:10:56.080 ,1,1,0.,24.0,0.,24.0,0.,24.0,0.,24.0
1979-07-16 05:11:20.080 ,2,1,0.,24.0,0.,24.0,0.,24.0,0.,24.0
1979-07-16 05:11:44.080 ,6,1,0.,24.0,0.,24.0,0.,24.0,0.,24.0
1979-07-16 05:12:08.080 ,5,1,0.,24.0,0.,24.0,0.,24.0,0.,24.0
1979-07-16 05:12:32.080 ,1,1,0.,24.0,0.,24.0,0.,24.0,0.,24.0
1979-07-16 05:12:56.080 ,2,1,0.,24.0,0.,24.0,0.,24.0,0.,24.0
1979-07-16 05:13:20.080 ,6,1,0.,24.0,0.,24.0,0.,24.0,0.,24.0
1979-07-16 05:13:44.080 ,5,1,0.,24.0,0.,24.0,0.,24.0,0.,24.0
1979-07-16 05:14:08.080 ,1,1,0.,24.0,0.,24.0,0.,24.0,0.,24.0
1979-07-16 05:14:32.080 ,2,1,0.,24.0,0.,24.0,0.,24.0,0.,24.0
1979-07-16 05:14:56.080 ,6,1,0.,24.0,0.,24.0,0.,24.0,0.,24.0
1979-07-16 05:15:20.080 ,5,1,0.,24.0,0.,24.0,0.,24.0,0.,24.0
1979-07-16 05:15:44.080 ,1,1,0.,24.0,0.,24.0,0.,24.0,0.,24.0
1979-07-16 05:16:08.080 ,2,1,0.,24.0,0.,24.0,0.,24.0,0.,24.0
1979-07-16 05:16:32.080 ,6,1,0.,24.0,0.,24.0,0.,24.0,0.,24.0
1979-07-16 05:16:56.080 ,5,1,0.,24.0,0.,24.0,0.,24.0,0.,24.0
1979-07-16 05:17:20.080 ,1,1,0.,24.0,0.,24.0,0.,24.0,0.,24.0
1979-07-16 05:17:44.080 ,0,0,0.,24.0,0.,24.0,0.,24.0,0.,24.0
1979-07-16 05:18:08.080 ,0,0,0.,24.0,0.,24.0,0.,24.0,0.,24.0
1979-07-16 05:18:32.080 ,5,1,0.,24.0,0.,24.0,0.,24.0,0.,24.0
1979-07-16 05:18:56.080 ,5,0,0.,24.0,0.,24.0,0.,24.0,0.,24.0
1979-07-16 05:19:20.080 ,4,1,0.,24.0,0.,24.0,0.,24.0,0.,24.0
1979-07-16 05:19:44.080 ,4,0,0.,24.0,0.,24.0,0.,24.0,0.,24.0
1979-07-16 05:20:08.080 ,3,1,0.,24.0,0.,24.0,0.,24.0,0.,24.0
1979-07-16 05:20:32.080 ,3,0,0.,24.0,0.,24.0,0.,24.0,0.,24.0
1979-07-16 05:20:56.080 ,2,1,0.,24.0,0.,24.0,0.,24.0,0.,24.0
1979-07-16 05:21:20.080 ,2,0,0.,24.0,0.,24.0,0.,24.0,0.,24.0
1979-07-16 05:21:44.080 ,1,1,0.,24.0,0.,24.0,0.,24.0,0.,24.0
1979-07-16 05:22:08.080 ,1,0,0.,24.0,0.,24.0,0.,24.0,0.,24.0
1979-07-16 05:22:32.080 ,0,1,0.,24.0,0.,24.0,0.,24.0,0.,24.0
1979-07-16 05:22:56.080 ,0,0,0.,24.0,0.,24.0,0.,24.0,0.,24.0
1979-07-16 05:23:20.080 ,0,1,0.,24.0,0.,24.0,0.,24.0,0.,24.0
1979-07-16 05:23:44.080 ,0,0,0.,24.0,0.,24.0,0.,24.0,0.,24.0
1979-07-16 05:24:08.080 ,1,1,0.,24.0,0.,24.0,0.,24.0,0.,24.0
1979-07-16 05:24:32.080 ,1,0,0.,24.0,0.,24.0,0.,24.0,0.,24.0
1979-07-16 05:24:56.080 ,2,1,0.,24.0,0.,24.0,0.,24.0,0.,24.0
1979-07-16 05:25:20.080 ,2,0,0.,24.0,0.,24.0,0.,24.0,0.,24.0
1979-07-16 05:25:44.080 ,3,1,0.,24.0,0.,24.0,0.,24.0,0.,24.0
1979-07-16 05:26:08.080 ,3,0,0.,24.0,0.,24.0,0.,24.0,0.,24.0
1979-07-16 05:26:32.080 ,4,1,0.,24.0,0.,24.0,0.,24.0,0.,24.0
1979-07-16 05:26:56.080 ,4,0,0.,24.0,0.,24.0,0.,24.0,0.,24.0
1979-07-16 05:27:20.080 ,5,1,0.,24.0,0.,24.0,0.,24.0,0.,24.0
1979-07-16 05:27:44.080 ,5,0,0.,24.0,0.,24.0,0.,24.0,0.,24.0
1979-07-16 05:28:08.080 ,6,1,0.,24.0,0.,24.0,0.,24.0,0.,24.0
1979-07-16 05:28:32.080 ,6,0,0.,24.0,0.,24.0,0.,24.0,0.,24.0
1979-07-16 05:28:56.080 ,7,1,0.,24.0,0.,24.0,0.,24.0,0.,24.0
1979-07-16 05:29:20.080 ,7,0,0.,24.0,0.,24.0,0.,24.0,0.,24.0
1979-07-16 05:29:44.080 ,7,1,0.,24.0,0.,24.0,0.,24.0,0.,24.0
1979-07-16 05:30:08.080 ,7,0,0.,24.0,0.,24.0,0.,24.0,0.,24.0
1979-07-16 05:30:32.080 ,6,1,0.,24.0,0.,24.0,0.,24.0,0.,24.0
1979-07-16 05:30:56.080 ,6,0,0.,24.0,0.,24.0,0.,24.0,0.,24.0
1979-07-16 05:31:20.080 ,5,1,0.,24.0,0.,24.0,0.,24.0,0.,24.0
1979-07-16 05:31:44.080 ,5,0,0.,24.0,0.,24.0,0.,24.0,0.,24.0
1979-07-16 05:32:08.080 ,4,1,0.,24.0,0.,24.0,0.,24.0,0.,24.0
1979-07-16 05:32:32.080 ,4,0,0.,24.0,0.,24.0,0.,24.0,0.,24.0
1979-07-16 05:32:56.080 ,3,1,0.,24.0,0.,24.0,0.,24.0,0.,24.0
1979-07-16 05:33:20.080 ,3,0,0.,24.0,0.,24.0,0.,24.0,0.,24.0
1979-07-16 05:33:44.080 ,2,1,0.,24.0,0.,24.0,0.,24.0,0.,24.0
1979-07-16 05:34:08.080 ,2,0,0.,24.0,0.,24.0,0.,24.0,0.,24.0
1979-07-16 05:34:32.080 ,1,1,0.,24.0,0.,24.0,0.,24.0,0.,24.0
1979-07-16 05:34:56.080 ,1,0,0.,24.0,0.,24.0,0.,24.0,0.,24.0
1979-07-16 05:35:20.080 ,0,1,0.,24.0,0.,24.0,0.,24.0,0.,24.0
1979-07-16 05:35:44.080 ,0,0,0.,24.0,0.,24.0,0.,24.0,0.,24.0
1979-07-16 05:36:08.080 ,0,1,0.,24.0,0.,24.0,0.,24.0,0.,24.0
1979-07-16 05:36:32.080 ,0,0,0.,24.0,0.,24.0,0.,24.0,0.,24.0
1979-07-16 05:36:56.080 ,1,1,0.,24.0,0.,24.0,0.,24.0,0.,24.0
1979-07-16 05:37:20.080 ,1,0,0.,24.0,0.,24.0,0.,24.0,0.,24.0
1979-07-16 05:37:44.080 ,2,1,0.,24.0,0.,24.0,0.,24.0,0.,24.0
1979-07-16 05:38:08.080 ,2,0,0.,24.0,0.,24.0,0.,24.0,0.,24.0
1979-07-16 05:39:20.080 ,0,0,0.,24.0,0.,24.0,0.,24.0,0.,24.0
1979-07-16 05:39:44.080 ,0,0,0.,24.0,0.,24.0,0.,24.0,0.,24.0
1979-07-16 05:40:08.080 ,5,1,0.,24.0,0.,24.0,0.,24.0,0.,24.0
1979-07-16 05:40:32.080 ,5,0,0.,24.0,0.,24.0,0.,24.0,0.,24.0
1979-07-16 05:40:56.080 ,6,1,0.,24.0,0.,24.0,0.,24.0,0.,24.0
1979-07-16 05:41:20.080 ,6,0,0.,24.0,0.,24.0,0.,24.0,0.,24.0
1979-07-16 05:41:44.080 ,7,1,0.,24.0,0.,24.0,0.,24.0,0.,24.0
1979-07-16 05:42:08.080 ,7,0,0.,24.0,0.,24.0,0.,24.0,0.,24.0
1979-07-16 05:42:32.080 ,7,1,0.,24.0,0.,24.0,0.,24.0,0.,24.0
1979-07-16 05:42:56.080 ,0,0,,0,,0,,0,,0
1979-07-16 05:43:20.080 ,6,1,0.,24.0,0.,24.0,0.,24.0,0.,24.0
1979-07-16 05:43:44.080 ,6,0,0.,24.0,0.,24.0,0.,24.0,0.,24.0
1979-07-16 05:44:08.080 ,5,1,0.,24.0,0.,24.0,0.,24.0,0.,24.0
1979-07-16 05:44:32.080 ,5,0,0.,24.0,0.,24.0,0.,24.0,0.,24.0
1979-07-16 05:44:56.080 ,4,1,0.,24.0,0.,24.0,0.,24.0,0.,24.0
1979-07-16 05:45:20.080 ,4,0,0.,24.0,0.,24.0,0.,24.0,0.,24.0
1979-07-16 05:45:44.080 ,3,1,0.,24.0,0.,24.0,0.,24.0,0.,24.0
1979-07-16 05:46:08.080 ,3,0,0.,24.0,0.,24.0,0.,24.0,0.,24.0
1979-07-16 05:46:32.080 ,2,1,0.,24.0,0.,24.0,0.,24.0,0.,24.0
1979-07-16 05:46:56.080 ,2,0,0.,24.0,0.,24.0,0.,24.0,0.,24.0
1979-07-16 05:47:20.080 ,1,1,0.,24.0,0.,24.0,0.,24.0,0.,24.0
1979-07-16 05:47:44.080 ,1,0,0.,24.0,0.,24.0,0.,24.0,0.,24.0